Theta_e
317 319 320 318 317 324 323 328 339 335 339 343 343 342 342 340 340 341 344 347 348 348 348 348 347 347 347 347 349 349 346 344 345 341 335 330 328 324 323 320 316 313 311 314
320 319 318 314 315 317 318 321 331 321 320 343 342 345 341 339 341 341 343 347 349 351 351 349 348 349 349 349 350 349 347 347 343 338 333 329 324 322 321 318 313 313 313 314
320 319 317 318 317 318 318 319 320 321 330 335 334 332 335 337 340 342 342 345 348 350 352 351 349 348 349 350 350 349 345 340 338 335 329 322 320 320 319 319 319 318 315 315
320 319 319 319 320 320 321 318 320 326 330 326 331 326 338 340 341 342 343 345 347 350 350 351 349 348 347 350 350 349 345 340 337 334 329 323 321 319 318 319 320 320 317 318
321 319 320 320 321 320 323 319 320 326 327 328 336 333 329 338 342 342 343 344 346 347 349 351 349 347 346 344 345 346 342 337 335 334 331 323 322 321 319 320 320 320 318 318
321 318 319 321 320 319 319 321 322 321 323 325 327 334 325 331 339 338 342 343 344 346 347 349 348 346 341 334 335 340 341 342 338 334 329 324 322 320 320 321 322 321 322 322
320 320 320 320 322 320 321 326 325 324 325 324 322 330 328 330 326 332 341 344 343 344 345 348 347 342 334 333 337 337 332 334 338 336 329 324 319 318 322 322 322 322 321 322
321 320 320 321 323 324 323 327 325 325 325 323 321 325 324 326 324 329 333 336 334 336 343 346 344 341 332 333 336 329 328 329 334 334 328 323 320 322 322 322 322 322 322 323
322 321 319 320 321 322 321 324 322 326 322 323 323 325 326 329 331 333 340 341 337 332 339 345 342 338 336 333 333 331 329 328 331 334 328 323 322 321 321 322 321 322 323 322
324 323 320 322 321 320 323 321 326 325 328 327 326 327 326 333 333 333 339 342 341 340 342 342 340 338 337 335 333 331 329 328 328 329 327 323 321 320 321 321 322 323 321 320
321 325 323 321 324 325 323 323 323 327 327 327 328 327 331 333 335 335 335 340 342 343 341 340 339 339 338 335 333 330 327 327 326 326 324 322 323 322 321 322 322 321 319 316
321 327 325 323 321 322 323 326 329 328 329 326 327 327 325 330 331 334 335 338 342 343 341 339 337 337 338 336 332 329 326 326 324 323 322 322 322 322 322 322 320 319 315 312
324 327 328 328 325 323 326 324 325 327 328 331 328 327 327 326 327 329 331 333 338 341 340 338 337 337 337 335 332 328 326 324 324 323 322 322 322 323 322 320 318 314 312 310
329 328 332 328 327 325 327 325 324 328 331 328 327 327 328 328 330 331 331 331 330 337 339 339 337 335 335 334 332 328 326 324 323 323 322 322 322 322 320 318 315 313 310 308
330 332 327 326 324 322 325 325 325 326 328 330 327 328 328 330 329 329 330 328 327 329 333 338 338 336 334 334 330 328 326 324 323 322 322 323 320 320 319 315 313 311 308 307
325 329 328 327 326 326 327 328 327 326 326 327 327 329 328 328 326 326 327 328 327 327 329 332 336 336 333 332 329 327 326 324 323 323 323 320 320 318 315 313 311 310 307 306
330 330 331 328 327 328 329 328 328 328 327 327 328 328 328 327 327 328 328 328 328 328 327 329 332 334 332 330 328 327 325 324 323 323 322 320 319 316 313 312 310 306 305 305
329 330 330 328 328 331 325 326 327 328 328 328 328 326 327 327 328 326 325 326 328 328 327 328 329 331 331 328 327 326 325 324 324 323 321 319 317 314 312 310 305 305 305 307
326 329 329 330 328 326 325 328 327 328 327 328 328 328 327 326 327 329 329 327 328 329 330 329 327 328 327 327 327 326 325 324 324 323 321 318 315 311 310 305 305 305 307 307
326 327 331 330 333 332 327 326 326 327 329 327 328 329 329 327 328 328 327 329 331 331 330 329 326 326 326 326 326 325 325 325 324 322 320 316 312 311 306 306 306 306 306 306
328 327 331 329 330 326 326 326 325 330 328 329 327 328 327 329 329 329 325 329 329 330 328 327 326 326 325 325 325 325 324 324 322 320 316 310 313 308 305 306 306 303 303 305
328 331 330 330 331 330 324 326 329 330 329 330 329 329 329 329 328 328 328 329 330 329 327 326 325 323 322 323 324 322 322 321 318 313 310 310 307 306 307 306 303 303 303 303
325 326 327 329 326 327 327 329 328 329 328 328 329 329 330 330 329 328 329 328 327 328 326 323 322 320 320 320 321 320 315 315 312 309 308 306 306 307 306 303 301 300 301 300
321 322 323 325 324 323 323 326 327 327 328 328 328 329 329 330 329 329 327 326 326 324 322 321 320 319 318 318 317 314 311 311 310 307 306 306 305 304 302 301 300 300 301 301
322 322 325 326 325 326 326 325 322 322 321 320 323 326 326 328 328 328 327 325 324 323 321 321 321 319 318 315 312 313 312 311 308 307 306 306 305 303 300 300 301 301 302 302
316 319 323 326 319 318 319 316 314 316 316 318 323 321 319 322 325 326 326 323 322 321 321 321 321 320 317 315 313 311 312 314 310 306 305 304 304 304 300 301 301 301 302 301
Wind_Speed
3 4 6 3 1 2 7 5 13 5 6 10 18 19 12 7 10 13 15 13 13 14 12 12 13 14 16 18 20 20 21 22 24 25 21 17 14 14 13 14 17 17 17 17
3 7 4 3 2 2 3 5 7 3 1 10 9 19 12 11 13 17 16 16 15 14 12 14 15 16 19 21 21 20 21 24 24 24 18 17 17 13 14 15 19 18 18 18
7 3 6 6 5 5 3 6 5 5 4 5 1 10 13 10 13 11 16 16 18 19 18 16 19 18 18 22 22 21 21 22 22 20 21 22 17 16 15 16 15 16 17 17
5 4 5 7 6 10 8 15 7 11 9 3 9 5 5 8 11 16 17 19 20 21 19 18 22 23 22 20 18 18 19 19 20 25 23 22 19 18 16 16 15 15 15 15
3 7 9 6 6 13 7 9 14 10 7 4 8 5 3 1 11 17 20 22 22 23 23 22 24 24 17 13 12 10 11 14 20 24 25 25 16 14 18 17 18 16 15 12
6 2 4 4 3 8 10 6 5 4 4 6 7 8 7 5 10 17 19 20 22 21 22 21 25 20 16 12 16 11 4 14 23 24 27 24 23 22 20 18 17 14 11 10
3 5 3 4 4 3 7 7 5 7 7 8 2 6 10 7 10 10 13 16 18 17 19 20 20 23 22 24 25 27 5 29 28 27 29 25 26 27 23 20 16 14 11 9
4 7 7 6 9 5 8 4 5 7 7 9 4 6 6 5 5 7 8 11 10 15 16 19 23 28 29 30 39 37 26 33 31 32 31 28 27 22 19 18 16 13 10 9
5 5 2 3 2 2 5 5 2 4 1 3 3 4 9 7 8 8 10 10 11 10 12 17 24 31 36 37 41 23 26 29 33 33 29 25 25 23 20 18 16 12 10 9
6 4 1 1 2 6 2 8 3 1 5 9 4 3 5 5 10 9 9 9 6 3 10 15 22 30 35 33 31 23 22 26 28 27 27 26 25 24 22 19 15 13 12 11
5 4 5 3 4 5 4 3 3 1 2 10 12 8 7 11 9 8 9 9 7 7 11 14 19 26 30 30 28 24 24 28 25 24 24 23 22 21 21 16 15 14 12 10
5 3 4 11 0 1 2 4 7 7 6 2 4 8 5 9 8 9 11 8 9 10 11 13 18 23 29 29 26 23 25 24 23 22 22 23 22 21 20 17 16 15 14 11
8 3 3 3 3 2 5 6 5 3 2 8 9 6 4 7 9 10 11 11 10 9 11 12 15 20 25 26 24 23 24 25 25 24 22 21 21 20 18 18 18 16 13 10
8 4 5 8 4 2 4 5 7 10 7 12 11 14 7 10 11 9 11 9 9 9 11 13 15 18 26 29 29 27 27 26 26 26 25 24 23 22 22 22 20 16 12 10
2 8 7 7 7 5 8 10 9 12 14 11 15 10 13 12 7 8 7 6 7 11 14 16 17 17 24 27 29 30 29 29 29 28 26 24 28 26 24 22 20 16 12 9
3 8 7 8 10 11 13 12 9 12 11 11 13 12 13 8 7 9 11 10 12 13 15 17 19 17 23 29 31 31 31 31 32 29 27 28 28 25 26 25 21 16 11 10
3 6 7 15 9 10 13 14 17 14 11 12 15 16 4 8 10 10 10 10 11 12 13 15 17 17 21 24 28 32 33 32 32 31 29 31 35 31 28 24 19 17 13 12
4 3 3 11 5 17 9 4 10 17 18 16 14 9 13 13 8 7 9 10 11 10 10 10 10 14 17 22 27 29 33 33 33 31 30 29 28 26 28 25 21 16 14 12
12 4 5 7 12 16 6 5 8 10 15 13 12 13 13 7 4 9 8 6 11 8 6 6 6 7 15 22 27 31 32 33 32 31 30 30 28 33 30 27 22 16 13 13
11 8 10 5 7 17 6 15 13 4 15 13 15 14 11 5 8 8 1 4 4 3 2 4 7 10 15 20 27 30 30 31 30 31 31 31 35 35 31 22 20 16 14 13
5 7 15 13 12 10 5 4 6 11 10 3 3 7 5 6 6 2 3 3 1 0 3 7 10 12 16 21 25 26 28 28 29 29 28 32 36 33 29 22 18 17 14 14
12 7 6 7 8 13 5 4 9 2 1 2 3 3 5 7 10 9 7 4 3 5 7 7 10 11 15 21 23 22 22 25 27 29 32 36 35 27 22 20 18 16 16 15
16 13 10 8 7 2 3 1 1 1 4 3 6 5 6 7 8 10 8 6 2 4 7 9 14 16 16 20 24 25 23 26 27 29 29 31 26 22 22 22 20 17 15 14
4 2 4 5 8 6 6 3 2 2 4 5 5 7 6 8 8 9 6 3 3 5 9 13 17 18 19 20 23 25 30 31 32 32 23 25 26 22 20 20 20 18 15 13
3 6 1 4 1 2 3 3 5 6 8 10 9 7 9 9 10 7 5 3 4 7 10 14 17 20 22 22 25 34 35 39 35 36 33 22 22 26 23 20 18 16 14 12
6 4 2 2 7 10 14 13 12 13 14 11 9 10 12 10 11 8 5 6 8 10 13 14 17 22 23 24 27 35 38 42 46 34 27 26 25 23 22 20 15 16 12 12
Wind_Direction
29 235 229 234 249 171 127 144 191 207 180 197 224 244 222 211 217 218 206 203 206 208 200 197 191 189 183 180 175 170 166 166 164 163 151 142 136 133 128 126 124 117 109 101
172 238 234 130 107 82 121 134 192 293 115 212 235 251 252 231 230 220 216 209 207 201 196 191 184 176 179 173 174 173 172 174 174 167 162 152 143 141 137 130 124 118 111 104
218 133 139 180 157 165 213 203 182 239 104 182 97 264 248 227 217 219 220 219 213 206 199 192 189 185 181 179 177 175 173 175 174 168 158 148 142 136 136 134 126 122 113 107
230 172 191 180 207 194 204 216 191 174 175 208 193 259 235 233 225 221 221 215 215 211 210 200 191 189 191 184 174 174 170 166 170 173 169 165 161 157 156 147 141 128 122 114
216 181 184 217 227 184 222 180 185 186 182 178 187 245 224 215 220 228 226 222 220 214 207 203 198 197 184 175 160 152 150 166 179 190 183 175 168 167 152 149 142 138 132 123
241 204 223 233 170 187 145 118 105 108 167 228 216 237 236 204 221 234 236 233 229 221 216 206 200 184 164 134 121 128 229 202 200 198 197 186 174 163 160 158 152 149 143 133
225 232 230 186 199 134 186 177 191 220 219 250 146 214 254 246 239 255 259 244 244 231 221 206 189 176 150 142 134 141 229 257 205 203 202 193 182 176 169 163 161 156 150 143
210 232 199 174 218 216 191 213 199 225 232 252 156 218 236 275 250 260 279 279 263 249 223 204 190 173 160 164 166 167 195 220 198 195 198 191 187 178 171 172 168 162 153 144
183 254 278 228 161 220 152 199 77 122 78 241 207 240 271 228 244 257 268 285 280 256 215 197 191 183 175 178 184 201 196 197 193 193 193 187 186 180 176 176 169 157 145 131
198 258 233 65 111 55 193 138 153 196 230 249 211 238 240 204 222 219 250 255 279 222 184 193 195 194 187 186 194 205 194 195 191 187 187 188 188 183 179 174 165 155 150 140
146 220 210 260 210 211 153 188 72 124 252 255 262 252 209 213 213 232 243 249 252 210 199 200 206 205 194 192 196 194 192 191 186 183 181 182 179 176 176 170 163 156 147 136
175 162 234 243 66 316 202 218 189 242 226 235 282 252 191 220 212 208 240 240 234 219 203 203 208 212 201 200 195 187 186 182 180 179 178 172 165 165 165 163 158 153 148 140
181 193 232 226 170 155 223 194 173 110 87 206 239 251 189 229 234 232 240 235 239 226 205 202 203 206 207 206 200 190 184 181 176 173 171 165 162 160 159 159 156 155 150 138
146 159 198 234 236 159 235 225 216 207 226 243 236 257 239 231 232 244 249 254 250 242 230 217 213 211 208 205 199 189 185 180 176 170 170 166 164 163 166 162 160 157 155 141
230 209 194 241 248 224 240 235 206 222 247 241 256 225 245 252 266 245 233 243 241 244 237 230 225 219 210 204 197 190 183 177 171 167 167 167 173 170 166 159 161 159 152 145
179 239 196 234 224 229 245 241 225 226 238 250 258 258 244 259 253 257 255 250 240 248 244 242 238 223 206 201 194 186 178 175 169 163 165 169 169 165 163 162 157 157 154 144
244 199 183 240 227 235 249 224 230 234 231 238 247 259 255 243 238 248 258 264 264 267 261 252 242 230 216 204 191 183 173 168 168 167 168 170 173 166 165 159 158 156 158 155
224 209 226 247 183 241 249 198 241 243 246 239 256 249 250 254 259 265 253 257 272 274 279 271 258 239 213 190 184 178 171 171 170 172 171 166 160 159 161 161 159 162 160 149
215 202 231 233 231 254 266 186 199 207 240 239 244 252 255 241 270 263 268 253 269 287 293 295 272 206 179 178 175 172 172 170 172 173 168 165 164 159 162 164 159 161 153 152
199 227 235 187 233 250 258 232 221 223 258 248 239 251 242 191 252 277 24 357 307 290 224 154 150 157 165 172 170 170 169 169 175 172 165 163 163 166 161 159 155 154 152 155
179 209 226 230 243 255 228 230 164 219 272 349 294 273 217 213 266 329 320 284 295 313 146 143 149 159 165 168 172 171 165 171 169 164 161 158 165 162 162 155 150 150 150 155
220 198 200 213 236 258 180 172 225 328 11 297 328 343 313 316 315 313 306 278 181 144 140 141 137 147 159 163 163 159 159 157 158 154 152 156 157 152 151 148 148 147 146 151
240 235 243 214 237 120 165 120 358 257 283 313 315 348 335 316 322 326 316 310 282 160 143 141 138 127 139 155 157 148 146 150 148 143 141 144 147 148 151 150 147 141 148 150
209 35 234 218 212 231 259 285 359 16 359 354 335 321 314 318 323 310 289 260 210 170 151 152 148 145 143 153 152 145 142 142 138 135 135 143 148 149 150 151 153 154 157 153
326 318 267 252 241 278 119 72 31 357 333 324 319 310 309 314 309 308 294 245 206 188 173 170 168 164 160 158 151 154 153 153 142 149 156 159 160 156 153 159 165 170 171 171
270 285 275 276 321 312 287 294 303 302 302 305 298 308 304 298 296 305 274 230 203 189 181 179 179 168 162 164 157 159 161 161 159 156 163 161 159 160 162 168 175 180 183 190